GW2123 Weather Reports


time (UTC)temp
F
wind
direction
speed
knots
gust
knots
rain 1hr
in
rain 24hr
in
rain mn
in
humidity
%
barometer
mb
20260507142542 48 0 0.0 0.0 0.00 0.00 0.00 51 1012.7
20260507142041 48 0 0.0 0.0 0.00 0.00 0.00 51 1012.8
20260507141552 47 0 0.0 0.0 0.00 0.00 0.00 51 1012.9
20260507141041 47 0 0.0 0.0 0.00 0.00 0.00 51 1012.7
20260507140540 47 0 0.0 0.0 0.00 0.00 0.00 50 1012.8
20260507140104 46 0 0.0 0.0 0.00 0.00 0.00 47 1012.8
20260507135541 46 0 0.0 0.0 0.00 0.00 0.00 43 1012.8
20260507135041 46 0 0.0 0.0 0.00 0.00 0.00 44 1012.9
20260507134553 46 0 0.0 0.0 0.00 0.00 0.00 42 1012.8
20260507134040 46 0 0.0 0.0 0.00 0.00 0.00 42 1012.8
20260507133542 46 0 0.0 1.7 0.00 0.00 0.00 39 1012.8
20260507133057 45 0 0.0 1.7 0.00 0.00 0.00 36 1012.8
20260507132540 45 0 0.0 0.0 0.00 0.00 0.00 36 1012.9
20260507132043 44 0 0.0 0.0 0.00 0.00 0.00 35 1012.8
20260507131603 44 0 0.0 0.0 0.00 0.00 0.00 31 1012.9
20260507131044 43 0 0.0 0.9 0.00 0.00 0.00 29 1012.9
20260507130541 43 0 0.0 0.9 0.00 0.00 0.00 26 1012.8
20260507130105 42 0 0.0 0.0 0.00 0.00 0.00 24 1012.9
20260507125541 42 0 0.0 0.0 0.00 0.00 0.00 25 1012.7
20260507125040 42 0 0.0 0.0 0.00 0.00 0.00 23 1012.7
20260507124603 42 0 0.0 0.0 0.00 0.00 0.00 22 1012.7
20260507124041 42 0 0.0 0.0 0.00 0.00 0.00 23 1012.8
20260507123542 42 0 0.0 0.0 0.00 0.00 0.00 24 1012.7
20260507123058 42 0 0.0 0.0 0.00 0.00 0.00 28 1012.6
20260507122540 42 0 0.0 0.0 0.00 0.00 0.00 29 1012.6
20260507122042 41 0 0.0 0.0 0.00 0.00 0.00 22 1012.6
20260507121554 41 0 0.0 0.0 0.00 0.00 0.00 23 1012.6
20260507121041 41 0 0.0 0.0 0.00 0.00 0.00 26 1012.6
20260507120540 41 0 0.0 0.0 0.00 0.00 0.00 26 1012.6
20260507120051 41 0 0.0 0.0 0.00 0.00 0.00 20 1012.6
20260507115541 40 0 0.0 0.0 0.00 0.00 0.00 21 1012.5
20260507115040 40 0 0.0 0.0 0.00 0.00 0.00 20 1012.5
20260507114552 40 0 0.0 0.0 0.00 0.00 0.00 15 1012.4
20260507114040 39 0 0.0 0.0 0.00 0.00 0.00 17 1012.3
20260507113541 39 0 0.0 0.0 0.00 0.00 0.00 19 1012.2
20260507113050 39 0 0.0 0.0 0.00 0.00 0.00 3 1012.2
20260507112541 38 0 0.0 0.0 0.00 0.00 0.00 3 1012.2
20260507112041 38 0 0.0 0.0 0.00 0.00 0.00 4 1012.2
20260507111549 38 0 0.0 0.0 0.00 0.00 0.00 5 1012.2
20260507111042 38 0 0.0 0.0 0.00 0.00 0.00 7 1012.0
20260507110541 38 0 0.0 0.0 0.00 0.00 0.00 5 1012.0
20260507110049 38 0 0.0 0.0 0.00 0.00 0.00 5 1011.9
20260507105540 38 0 0.0 0.0 0.00 0.00 0.00 3 1012.0
20260507105041 38 0 0.0 0.0 0.00 0.00 0.00 4 1012.0
20260507104552 38 0 0.0 0.0 0.00 0.00 0.00 100 1011.9
20260507104037 38 0 0.0 0.0 0.00 0.00 0.00 100 1012.0
20260507103540 38 0 0.0 0.0 0.00 0.00 0.00 100 1011.8
20260507103052 38 0 0.0 0.0 0.00 0.00 0.00 5 1011.8
20260507102541 38 0 0.0 0.0 0.00 0.00 0.00 13 1011.8
20260507102040 38 0 0.0 0.0 0.00 0.00 0.00 17 1011.8
20260507101548 38 0 0.0 0.0 0.00 0.00 0.00 16 1011.9
20260507101041 38 0 0.0 0.0 0.00 0.00 0.00 17 1011.8
20260507100541 38 0 0.0 0.0 0.00 0.00 0.00 17 1011.8
20260507100046 39 0 0.0 0.0 0.00 0.00 0.00 15 1011.8
20260507095540 39 0 0.0 0.0 0.00 0.00 0.00 13 1011.7
20260507095039 39 0 0.0 0.0 0.00 0.00 0.00 14 1011.7
20260507094544 39 0 0.0 0.0 0.00 0.00 0.00 12 1011.7
20260507094041 39 0 0.0 0.0 0.00 0.00 0.00 10 1011.8
20260507093541 39 0 0.0 0.0 0.00 0.00 0.00 12 1011.8
20260507093049 39 0 0.0 0.0 0.00 0.00 0.00 12 1011.8
20260507092541 39 0 0.0 0.0 0.00 0.00 0.00 14 1011.8
20260507092043 39 0 0.0 0.0 0.00 0.00 0.00 17 1012.0
20260507091548 39 0 0.0 0.0 0.00 0.00 0.00 16 1011.9
20260507091044 39 0 0.0 0.0 0.00 0.00 0.00 19 1011.9
20260507090541 39 0 0.0 0.0 0.00 0.00 0.00 16 1011.9
20260507090047 40 0 0.0 0.0 0.00 0.00 0.00 10 1011.9
20260507085541 40 0 0.0 0.0 0.00 0.00 0.00 10 1011.9
20260507085040 40 0 0.0 0.0 0.00 0.00 0.00 4 1011.9
20260507084552 40 0 0.0 0.0 0.00 0.00 0.00 5 1012.0
20260507084041 40 0 0.0 0.0 0.00 0.00 0.00 100 1011.9
20260507083540 40 0 0.0 0.0 0.00 0.00 0.00 3 1012.0
20260507083053 41 0 0.0 0.0 0.00 0.00 0.00 100 1012.1
20260507082544 41 0 0.0 0.0 0.00 0.00 0.00 2 1012.0
20260507082044 41 0 0.0 0.0 0.00 0.00 0.00 7 1012.1
20260507081550 41 0 0.0 0.0 0.00 0.00 0.00 11 1012.1
20260507081041 41 0 0.0 0.0 0.00 0.00 0.00 15 1012.1
20260507080541 41 0 0.0 0.0 0.00 0.00 0.00 19 1012.1
20260507080114 42 0 0.0 0.0 0.00 0.00 0.00 22 1012.0
20260507075541 42 0 0.0 0.0 0.00 0.00 0.00 23 1011.9
20260507075041 42 0 0.0 0.0 0.00 0.00 0.00 27 1011.9
20260507074558 42 0 0.0 0.0 0.00 0.00 0.00 30 1011.9
20260507074115 43 0 0.0 0.0 0.00 0.00 0.00 33 1012.1
20260507073543 43 0 0.0 0.0 0.00 0.00 0.00 35 1012.0
20260507073059 43 0 0.0 0.0 0.00 0.00 0.00 36 1012.1
20260507072541 43 0 0.0 0.0 0.00 0.00 0.00 40 1012.0
20260507072046 43 0 0.0 0.0 0.00 0.00 0.00 42 1011.9
20260507071600 43 0 0.0 0.0 0.00 0.00 0.00 43 1011.8
20260507071043 43 0 0.0 0.0 0.00 0.00 0.00 42 1011.9
20260507070541 43 0 0.0 0.0 0.00 0.00 0.00 42 1011.9
20260507070051 43 0 0.0 0.0 0.00 0.00 0.00 43 1011.9
20260507065540 43 0 0.0 0.0 0.00 0.00 0.00 43 1012.0
20260507065040 44 0 0.0 0.0 0.00 0.00 0.00 45 1012.1
20260507064557 44 0 0.0 0.0 0.00 0.00 0.00 48 1012.1
20260507064041 44 0 0.0 0.0 0.00 0.00 0.00 48 1012.1
20260507063540 44 0 0.0 0.0 0.00 0.00 0.00 49 1012.2
20260507063054 44 0 0.0 0.0 0.00 0.00 0.00 49 1012.3
20260507062540 44 0 0.0 0.0 0.00 0.00 0.00 48 1012.2
20260507062040 44 0 0.0 0.0 0.00 0.00 0.00 49 1012.3
20260507061551 44 0 0.0 0.0 0.00 0.00 0.00 50 1012.3
20260507061040 44 0 0.0 0.0 0.00 0.00 0.00 51 1012.3
20260507060541 44 0 0.0 0.0 0.00 0.00 0.00 51 1012.4
20260507060051 44 0 0.0 0.0 0.00 0.00 0.00 50 1012.4
20260507055540 44 0 0.0 0.0 0.00 0.00 0.00 51 1012.4
20260507055043 44 0 0.0 0.0 0.00 0.00 0.00 51 1012.5
20260507054604 45 0 0.0 0.0 0.00 0.00 0.00 52 1012.5
20260507054040 45 0 0.0 0.0 0.00 0.00 0.00 52 1012.6
20260507053541 45 0 0.0 0.0 0.00 0.00 0.00 52 1012.5
20260507053056 45 0 0.0 0.0 0.00 0.00 0.00 52 1012.6
20260507052540 45 0 0.0 0.0 0.00 0.00 0.00 52 1012.6
20260507052041 45 0 0.0 0.0 0.00 0.00 0.00 52 1012.6
20260507051600 45 0 0.0 0.0 0.00 0.00 0.00 52 1012.7
20260507051041 45 0 0.0 0.0 0.00 0.00 0.00 52 1012.7
20260507050544 45 0 0.0 0.0 0.00 0.00 0.00 52 1012.6
20260507050050 45 0 0.0 0.0 0.00 0.00 0.00 52 1012.6
20260507045543 45 0 0.0 0.0 0.00 0.00 0.00 52 1012.5
20260507045040 46 0 0.0 0.0 0.00 0.00 0.00 52 1012.5
20260507044556 46 0 0.0 0.0 0.00 0.00 0.00 52 1012.5
20260507044042 46 0 0.0 0.0 0.00 0.00 0.00 52 1012.5
20260507043543 46 0 0.0 0.0 0.00 0.00 0.00 52 1012.5
20260507043055 46 0 0.0 0.0 0.00 0.00 0.00 52 1012.5
20260507042541 46 0 0.0 0.0 0.00 0.00 0.00 52 1012.5
20260507042042 46 0 0.0 0.0 0.00 0.00 0.00 52 1012.5
20260507041559 46 0 0.0 0.0 0.00 0.00 0.00 52 1012.6
20260507041419 47 0 0.0 0.0 0.00 0.00 0.00 52 1012.6
20260507040541 47 0 0.0 0.0 0.00 0.00 0.00 52 1012.5
20260507040100 47 0 0.0 0.0 0.00 0.00 0.00 51 1012.5
20260507035540 47 0 0.0 0.0 0.00 0.00 0.00 51 1012.4
20260507035040 47 0 0.0 0.0 0.00 0.00 0.00 51 1012.5
20260507034557 47 0 0.0 0.0 0.00 0.00 0.00 51 1012.5
20260507034038 47 0 0.0 0.0 0.00 0.00 0.00 51 1012.5
20260507033537 47 0 0.0 0.0 0.00 0.00 0.00 51 1012.5
20260507033048 47 0 0.0 0.0 0.00 0.00 0.00 50 1012.4
20260507032544 47 0 0.0 0.0 0.00 0.00 0.00 50 1012.5
20260507032042 48 0 0.0 0.0 0.00 0.00 0.00 50 1012.5
20260507031549 48 0 0.0 0.0 0.00 0.00 0.00 50 1012.5
20260507031042 48 0 0.0 0.0 0.00 0.00 0.00 50 1012.5
20260507030541 48 0 0.0 0.9 0.00 0.00 0.00 50 1012.5
20260507030054 48 0 0.0 0.9 0.00 0.00 0.00 50 1012.5
20260507025539 48 0 0.0 0.9 0.00 0.00 0.00 50 1012.5
20260507025042 48 0 0.0 0.9 0.00 0.00 0.00 50 1012.5
20260507024550 48 0 0.0 0.0 0.00 0.00 0.00 49 1012.4
20260507024043 48 0 0.0 0.0 0.00 0.00 0.00 49 1012.5
20260507023539 49 0 0.0 0.0 0.00 0.00 0.00 49 1012.4
20260507023047 49 0 0.0 0.0 0.00 0.00 0.00 48 1012.3
20260507022543 49 0 0.0 0.0 0.00 0.00 0.00 49 1012.4
20260507022042 49 0 0.0 2.6 0.00 0.00 0.00 49 1012.3
20260507021551 49 0 0.0 2.6 0.00 0.00 0.00 48 1012.2
20260507021042 49 0 0.0 2.6 0.00 0.00 0.00 48 1012.2
20260507020543 49 0 0.0 0.0 0.00 0.00 0.00 49 1012.2
20260507015542 49 0 0.0 0.0 0.00 0.00 0.00 48 1012.2
20260507015043 49 0 0.0 0.0 0.00 0.00 0.00 47 1012.2
20260507014559 50 0 0.0 0.0 0.00 0.00 0.00 47 1012.2
20260507014042 50 0 0.0 0.0 0.00 0.00 0.00 47 1012.1
20260507013545 50 0 0.0 0.0 0.00 0.00 0.00 46 1012.1
20260507013045 50 0 0.0 0.0 0.00 0.00 0.00 46 1012.1
20260507012542 50 0 0.0 0.0 0.00 0.00 0.00 45 1012.0
20260507012042 50 0 0.0 0.9 0.00 0.00 0.00 46 1012.1
20260507011602 50 0 0.0 0.9 0.00 0.00 0.00 46 1012.1
20260507011042 50 0 0.0 0.0 0.00 0.00 0.00 45 1012.0
20260507010543 50 0 0.0 0.0 0.00 0.00 0.00 44 1012.0
20260507010049 51 0 0.0 0.0 0.00 0.00 0.00 44 1012.1
20260507005543 51 0 0.0 0.0 0.00 0.00 0.00 43 1012.0
20260507005046 51 0 0.0 0.0 0.00 0.00 0.00 42 1011.9
20260507004546 51 0 0.0 0.0 0.00 0.00 0.00 43 1011.8
20260507004042 51 0 0.0 0.0 0.00 0.00 0.00 42 1011.7
20260507003547 51 0 0.0 0.0 0.00 0.00 0.00 42 1011.6
20260507003049 51 0 0.0 0.0 0.00 0.00 0.00 42 1011.6
20260507002542 51 0 0.0 0.0 0.00 0.00 0.00 42 1011.5
20260507002043 51 0 0.0 0.0 0.00 0.00 0.00 42 1011.5
20260507001605 51 0 0.0 0.0 0.00 0.00 0.00 41 1011.5
20260507001112 52 0 0.0 0.0 0.00 0.00 0.00 42 1011.4
20260507000546 52 0 0.0 0.0 0.00 0.00 0.00 41 1011.3
20260507000058 52 0 0.0 0.0 0.00 0.00 0.00 40 1011.3
20260506235542 52 0 0.0 0.0 0.00 0.00 0.00 40 1011.4
20260506235042 52 0 0.0 0.0 0.00 0.00 0.00 39 1011.3
20260506234552 52 0 0.0 0.0 0.00 0.00 0.00 39 1011.3
20260506234041 52 0 0.0 0.0 0.00 0.00 0.00 39 1011.3
20260506233543 52 0 0.0 0.0 0.00 0.00 0.00 39 1011.3
20260506233048 52 0 0.0 0.0 0.00 0.00 0.00 38 1011.2
20260506232542 52 0 0.0 0.0 0.00 0.00 0.00 39 1011.3
20260506232042 53 0 0.0 0.0 0.00 0.00 0.00 38 1011.2
20260506231549 53 0 0.0 0.9 0.00 0.00 0.00 38 1011.3
20260506231042 53 0 0.0 0.9 0.00 0.00 0.00 39 1011.2
20260506230542 53 0 0.0 0.0 0.00 0.00 0.00 38 1011.2
20260506230048 53 0 0.0 0.0 0.00 0.00 0.00 38 1011.2
20260506225545 53 0 0.0 0.0 0.00 0.00 0.00 37 1011.2
20260506225042 53 0 0.0 4.3 0.00 0.00 0.00 37 1011.3
20260506224546 53 0 0.0 4.3 0.00 0.00 0.00 37 1011.3
20260506224042 53 0 0.0 4.3 0.00 0.00 0.00 37 1011.2
20260506223542 53 0 0.0 0.0 0.00 0.00 0.00 37 1011.2
20260506223049 54 0 0.0 0.9 0.00 0.00 0.00 38 1011.2
20260506222542 54 0 0.0 0.9 0.00 0.00 0.00 37 1011.3
20260506222043 54 0 0.0 0.9 0.00 0.00 0.00 37 1011.4
20260506221554 54 0 0.0 0.9 0.00 0.00 0.00 37 1011.4
20260506221042 54 0 0.0 0.0 0.00 0.00 0.00 38 1011.2
20260506220542 54 0 0.0 0.0 0.00 0.00 0.00 38 1011.4
20260506220058 54 0 0.0 0.0 0.00 0.00 0.00 37 1011.2
20260506215542 54 0 0.0 0.0 0.00 0.00 0.00 37 1011.4
20260506215044 54 0 0.0 0.0 0.00 0.00 0.00 38 1011.2
20260506214547 54 0 0.0 0.0 0.00 0.00 0.00 37 1011.2
20260506214042 54 0 0.0 0.0 0.00 0.00 0.00 37 1011.2
20260506213541 54 0 0.0 0.0 0.00 0.00 0.00 38 1011.2
20260506213055 54 0 0.0 0.0 0.00 0.00 0.00 38 1011.2
20260506212542 54 0 0.0 0.0 0.00 0.00 0.00 38 1011.2
20260506212045 54 0 0.0 0.0 0.00 0.00 0.00 37 1011.2
20260506211550 54 0 0.0 0.0 0.00 0.00 0.00 38 1011.1
20260506211043 54 0 0.0 0.0 0.00 0.00 0.00 39 1011.2
20260506210543 54 0 0.0 0.0 0.00 0.00 0.00 39 1011.2
20260506210100 54 0 0.0 0.0 0.00 0.00 0.00 39 1011.2
20260506205542 54 0 0.0 0.0 0.00 0.00 0.00 38 1011.2
20260506205045 54 0 0.0 0.0 0.00 0.00 0.00 40 1011.2
20260506204554 53 0 0.0 0.0 0.00 0.00 0.00 40 1011.1
20260506204042 53 0 0.0 2.6 0.00 0.00 0.00 40 1011.3
20260506203542 54 0 0.0 5.2 0.00 0.00 0.00 39 1011.3
20260506203139 54 0 0.0 6.1 0.00 0.00 0.00 39 1011.3
20260506202542 54 0 0.0 6.1 0.00 0.00 0.00 39 1011.3
20260506202042 54 150 0.0 2.6 0.00 0.00 0.00 39 1011.3
20260506201548 53 0 0.0 0.0 0.00 0.00 0.00 39 1011.3
20260506201041 54 0 0.0 0.0 0.00 0.00 0.00 39 1011.4
20260506200541 53 0 0.0 0.0 0.00 0.00 0.00 39 1011.6
20260506200052 53 0 0.0 0.0 0.00 0.00 0.00 40 1011.6
20260506195541 53 0 0.0 0.0 0.00 0.00 0.00 40 1011.6
20260506195042 53 0 0.0 0.0 0.00 0.00 0.00 41 1011.5
20260506194550 53 0 0.0 0.0 0.00 0.00 0.00 40 1011.7
20260506194042 53 0 0.0 0.0 0.00 0.00 0.00 40 1011.5
20260506193542 53 0 0.0 0.0 0.00 0.00 0.00 39 1011.7
20260506193054 53 0 0.0 0.0 0.00 0.00 0.00 39 1011.6
20260506192541 53 0 0.0 4.3 0.00 0.00 0.00 41 1011.7
20260506192043 53 0 0.0 4.3 0.00 0.00 0.00 41 1011.7
20260506191551 53 104 0.0 3.5 0.00 0.00 0.00 40 1011.7
20260506191042 53 0 0.0 0.0 0.00 0.00 0.00 41 1011.8
20260506190542 53 0 0.0 0.0 0.00 0.00 0.00 41 1011.8
20260506190055 53 0 0.0 0.0 0.00 0.00 0.00 42 1011.8
20260506185542 53 0 0.0 0.0 0.00 0.00 0.00 42 1011.8
20260506185043 52 0 0.0 0.0 0.00 0.00 0.00 42 1011.8
20260506184555 52 0 0.0 0.0 0.00 0.00 0.00 41 1011.9
20260506184045 52 0 0.0 0.0 0.00 0.00 0.00 42 1012.0
20260506183542 52 0 0.0 0.0 0.00 0.00 0.00 42 1012.0
20260506183053 51 0 0.0 0.0 0.00 0.00 0.00 42 1011.9
20260506182541 51 0 0.0 4.3 0.00 0.00 0.00 43 1012.0
20260506182042 51 0 0.0 4.3 0.00 0.00 0.00 42 1012.0
20260506181553 51 0 0.0 0.0 0.00 0.00 0.00 43 1012.0
20260506181042 51 0 0.0 0.0 0.00 0.00 0.00 43 1012.0
20260506180543 51 0 0.0 0.0 0.00 0.00 0.00 44 1011.9
20260506180054 51 0 0.0 0.0 0.00 0.00 0.00 43 1012.0
20260506175542 51 0 0.0 0.0 0.00 0.00 0.00 44 1012.0
20260506175045 52 0 0.0 0.0 0.00 0.00 0.00 42 1012.1
20260506174559 52 0 0.0 0.0 0.00 0.00 0.00 44 1012.0
20260506174045 51 0 0.0 0.0 0.00 0.00 0.00 44 1012.1
20260506173542 51 0 0.0 0.0 0.00 0.00 0.00 44 1012.3
20260506173056 50 0 0.0 0.0 0.00 0.00 0.00 45 1012.3
20260506172542 51 0 0.0 0.0 0.00 0.00 0.00 45 1012.4
20260506172042 51 0 0.0 0.0 0.00 0.00 0.00 44 1012.4
20260506171549 51 0 0.0 0.0 0.00 0.00 0.00 44 1012.5
20260506171042 51 0 0.0 0.0 0.00 0.00 0.00 45 1012.3
20260506170539 50 0 0.0 0.0 0.00 0.00 0.00 46 1012.4
20260506170050 51 0 0.0 0.0 0.00 0.00 0.00 45 1012.3
20260506165541 50 0 0.0 0.0 0.00 0.00 0.00 46 1012.4
20260506165042 50 0 0.0 0.0 0.00 0.00 0.00 47 1012.5
20260506164552 50 0 0.0 0.0 0.00 0.00 0.00 46 1012.5
20260506164042 50 0 0.0 0.0 0.00 0.00 0.00 45 1012.5
20260506163541 50 0 0.0 0.0 0.00 0.00 0.00 45 1012.5
20260506163100 51 0 0.0 1.7 0.00 0.00 0.00 45 1012.5
20260506162541 50 0 0.0 1.7 0.00 0.00 0.00 48 1012.6
20260506162041 50 0 0.0 1.7 0.00 0.00 0.00 47 1012.5
20260506161548 50 0 0.0 0.0 0.00 0.00 0.00 46 1012.5
20260506161044 51 0 0.0 0.0 0.00 0.00 0.00 48 1012.5
20260506160542 50 0 0.0 0.0 0.00 0.00 0.00 48 1012.6
20260506160045 51 0 0.0 0.0 0.00 0.00 0.00 46 1012.6
20260506155542 50 0 0.0 0.0 0.00 0.00 0.00 48 1012.7
20260506155043 50 0 0.0 0.9 0.00 0.00 0.00 46 1012.8
20260506154548 50 0 0.0 0.9 0.00 0.00 0.00 46 1012.8
20260506154046 49 0 0.0 0.9 0.00 0.00 0.00 47 1012.8
20260506153541 50 0 0.0 0.0 0.00 0.00 0.00 49 1012.7
20260506153057 49 0 0.0 0.0 0.00 0.00 0.00 50 1012.8
20260506152541 49 0 0.0 0.0 0.00 0.00 0.00 51 1012.8
20260506152043 49 0 0.0 0.0 0.00 0.00 0.00 51 1012.9
20260506151549 48 0 0.0 0.0 0.00 0.00 0.00 51 1012.8
20260506151041 48 0 0.0 0.0 0.00 0.00 0.00 51 1012.7
20260506150541 48 0 0.0 0.0 0.00 0.00 0.00 51 1012.8
20260506150048 47 0 0.0 0.0 0.00 0.00 0.00 49 1012.5
20260506145544 47 0 0.0 0.0 0.00 0.00 0.00 49 1012.6
20260506145041 47 0 0.0 0.0 0.00 0.00 0.00 49 1012.5
20260506144547 47 0 0.0 0.0 0.00 0.00 0.00 48 1012.4
20260506144041 47 0 0.0 0.0 0.00 0.00 0.00 49 1012.5
20260506143541 47 0 0.0 0.9 0.00 0.00 0.00 48 1012.5
20260506143048 47 0 0.0 0.9 0.00 0.00 0.00 48 1012.5